Change the Weather History Date:

Saturday, November 9, 2013

  Actual Average Record
Temperature  
Mean Temperature 42 °F 50 °F  
Max Temperature 55 °F 60 °F 74 °F (1999)
Min Temperature 28 °F 40 °F 18 °F (1955)
Degree Days  
Heating Degree Days 23    
Month to date heating degree days 145  
Since 1 July heating degree days 409  
Cooling Degree Days 0    
Month to date cooling degree days 0  
Year to date cooling degree days 922  
Moisture  
Dew Point 28 °F    
Average Humidity 62    
Maximum Humidity 85    
Minimum Humidity 38    
Precipitation  
Precipitation 0.00 in 0.14 in 2.38 in (1962)
Month to date precipitation 0.70 1.26  
Year to date precipitation 51.48 46.30  
Sea Level Pressure  
Sea Level Pressure 30.27 in    
Wind  
Wind Speed 4 mph (SSW)    
Max Wind Speed 14 mph    
Max Gust Speed 22 mph    
Visibility 10 miles    
Events      
T = Trace of Precipitation, MM = Missing Value Source: NWS Daily Summary

Daily Weather History Graph

Daily Weather History Graph

Search for Another Location

Airport or City:

Trip Planner

Search our weather history database for the weather conditions in past years. The results will help you decide how hot, cold, wet, or windy it might be!

Date:

Astronomy

Nov. 09, 2013 Rise Set
Actual Time 6:10 AM CST 4:37 PM CST
Civil Twilight 5:43 AM CST 5:03 PM CST
Nautical Twilight 5:13 AM CST 5:34 PM CST
Astronomical Twilight 4:43 AM CST 6:04 PM CST
Moon 11:49 AM CST (11/9) 11:03 PM CST (11/9)
Length of Visible Light 11h 19m
Length of Day
10h 26m
Waxing Crescent, 44% of the Moon is Illuminated
Nov 9
Waxing Crescent
Nov 9
First Quarter
Nov 17
Full
Nov 25
Last Quarter
Dec 2
New

Hourly Weather History & Observations

Time (CST) Temp. Windchill Dew Point Humidity Pressure Visibility Wind Dir Wind Speed Gust Speed Precip Events Conditions
12:53 AM 30.9 °F - 24.1 °F 76% 30.27 in 10.0 mi Calm Calm - N/A   Clear
1:53 AM 30.9 °F - 24.1 °F 76% 30.29 in 10.0 mi Calm Calm - N/A   Clear
2:53 AM 30.0 °F 26.5 °F 25.0 °F 82% 30.29 in 10.0 mi NNW 3.5 mph - N/A   Clear
3:53 AM 28.9 °F - 25.0 °F 85% 30.28 in 10.0 mi Calm Calm - N/A   Clear
4:53 AM 37.0 °F 34.5 °F 21.9 °F 54% 30.27 in 10.0 mi South 3.5 mph - N/A   Clear
5:53 AM 37.9 °F - 21.9 °F 53% 30.29 in 10.0 mi Calm Calm - N/A   Clear
6:53 AM 44.1 °F 40.8 °F 26.1 °F 49% 30.29 in 10.0 mi Variable 5.8 mph - N/A   Clear
7:53 AM 48.0 °F - 28.0 °F 46% 30.31 in 10.0 mi Variable 5.8 mph - N/A   Clear
8:53 AM 51.1 °F - 28.0 °F 41% 30.31 in 10.0 mi South 6.9 mph - N/A   Clear
9:53 AM 52.0 °F - 27.0 °F 38% 30.31 in 10.0 mi SSW 11.5 mph 19.6 mph N/A   Clear
10:53 AM 53.1 °F - 28.9 °F 40% 30.30 in 10.0 mi Variable 4.6 mph - N/A   Clear
11:53 AM 54.0 °F - 28.0 °F 37% 30.29 in 10.0 mi Variable 5.8 mph - N/A   Clear
12:53 PM 54.0 °F - 28.0 °F 37% 30.27 in 10.0 mi Variable 4.6 mph - N/A   Clear
1:53 PM 54.0 °F - 28.0 °F 37% 30.27 in 10.0 mi SW 8.1 mph - N/A   Clear
2:53 PM 54.0 °F - 30.0 °F 40% 30.23 in 10.0 mi Variable 3.5 mph - N/A   Scattered Clouds
3:53 PM 54.0 °F - 30.9 °F 41% 30.23 in 10.0 mi Calm Calm - N/A   Clear
4:53 PM 50.0 °F - 28.9 °F 44% 30.23 in 10.0 mi Variable 3.5 mph - N/A   Clear
5:53 PM 46.9 °F - 30.9 °F 54% 30.25 in 10.0 mi South 3.5 mph - N/A   Clear
6:53 PM 46.0 °F 44.8 °F 30.0 °F 54% 30.27 in 10.0 mi SW 3.5 mph - N/A   Clear
7:53 PM 42.1 °F 40.2 °F 32.0 °F 67% 30.27 in 10.0 mi SSW 3.5 mph - N/A   Clear
8:53 PM 46.0 °F 43.1 °F 30.9 °F 56% 30.26 in 10.0 mi SW 5.8 mph - N/A   Mostly Cloudy
9:53 PM 46.0 °F - 30.9 °F 56% 30.26 in 10.0 mi Calm Calm - N/A   Clear
10:53 PM 44.1 °F 42.5 °F 30.9 °F 60% 30.26 in 10.0 mi WSW 3.5 mph - N/A   Clear
11:53 PM 45.0 °F - 32.0 °F 60% 30.25 in 10.0 mi Calm Calm - N/A   Mostly Cloudy